Home > Weather > Port-aux-Francais > Past weeks

Flag for French Southern Territories Past Weather in Port-aux-Francais, French Southern Territories — Yesterday and Last 2 Weeks

Now
45 °F

Cool.


Feels Like: 37 °F
Forecast: 35 / 41 °F
Wind: 23 mph from Northwest

Location: Port-Aux-Francais Iles Kerguelen

Current Time: Aug 25, 2016 at 11:41:34 PM

Latest Report: Aug 25, 2016 at 11:00 PM


Visibility: N/A

Pressure: 29.35 "Hg

Humidity: 87%

Dew Point: 42 °F

Location of Port-aux-FrancaisLocation

Past Weather in Port-aux-Francais — Graph

°F

Port-aux-Francais Temperature Yesterday

Maximum temperature yesterday: 48 °F (at 12:00 PM)
Minimum temperature yesterday: 40 °F (at 6:00 PM)
Average temperature yesterday: 44 °F

High & Low Weather Summary for the Past Weeks

 TemperatureHumidityPressure
High51 °F (Aug 25, 11:00 AM)95% (Aug 12, 4:00 PM)30.24 "Hg (Aug 12, 4:00 PM)
Low26 °F (Aug 22, 3:00 AM)57% (Aug 16, 1:00 PM)28.56 "Hg (Aug 21, 3:00 AM)
Average36 °F80%29.47 "Hg
* Reported Aug 10 9:00 PM — Aug 25 9:00 PM, Port-aux-Francais, Weather by CustomWeather, © 2016

Note: Actual official high and low records may vary slightly from our data, if they occured in-between our weather recording intervals... More about our weather records

Advertising

Port-aux-Francais Weather History for the Previous 24 Hours

Scroll right to see more
 ConditionsComfort  
Time TempWeatherWind HumidityBarometerVisibility
9:00 PM
Thu, Aug 25
47 °FCool.28 mph84%29.38 "HgN/A
8:00 PM48 °FCool.35 mph82%29.38 "HgN/A
7:00 PM48 °FCool.45 mph84%29.38 "HgN/A
6:00 PM47 °FCool.46 mph86%29.38 "HgN/A
5:00 PM48 °FOvercast.45 mph84%29.41 "Hg5 mi
4:00 PM48 °FCool.46 mph85%29.41 "HgN/A
3:00 PM49 °FCool.47 mph83%29.44 "HgN/A
2:00 PM50 °FCool.47 mph83%29.44 "HgN/A
1:00 PM50 °FCool.51 mph82%29.47 "HgN/A
12:00 PM50 °FCool.46 mph83%29.50 "HgN/A
11:00 AM51 °FLight rain. Low clouds.44 mph82%29.50 "Hg4 mi
10:00 AM49 °FCool.41 mph82%29.55 "HgN/A
9:00 AM50 °FCool.46 mph83%29.56 "HgN/A
8:00 AM49 °FLight rain. Low clouds.37 mph84%29.60 "Hg4 mi
7:00 AM48 °FCool.16 mph86%29.67 "HgN/A
6:00 AM47 °FCool.9 mph90%29.72 "HgN/A
5:00 AM47 °FCool.7 mph89%29.75 "HgN/A
4:00 AM46 °FCool.30 mph91%29.78 "HgN/A
3:00 AM46 °FCool.29 mph89%29.80 "HgN/A
2:00 AM47 °FCool.28 mph88%29.83 "HgN/A
1:00 AM46 °FCool.33 mph89%29.84 "HgN/A
12:00 AM44 °FQuite cool.22 mph93%29.87 "HgN/A
Weather by CustomWeather, © 2016

See weather overviewHow to use our weather pages